Back to catalog

FREGAT DEB

LostHEO
NORAD 45966·DEBRIS·🇷🇺 Russia

Launched Jul 18, 2011 from Baikonur Cosmodrome

Loading…

Next Passes (next 24 hours)

TLE

StaleSource: Space-Track

Epoch: Aug 20, 2020, 11:58 UTC

1 45966U 11037FX  20233.49927517 -.00002399  00000-0 -40449-2 0  9994
2 45966  51.3395 271.9272 2673030 114.5781 275.5606  9.25136552  2513

Track FREGAT DEB in real time with AllMySat

Download on the App Store